7 * 24
多渠道服务支持
STARLINK-32014 是 SpaceX Starlink 项目中的一颗低轨通信卫星,属于第三代 Starlink 卫星(也称为 v1.5 或 Block V)。该卫星于 2023 年发射,旨在为全球用户提供高速、低延迟的互联网服务。它运行在约 550 公里的轨道高度,采用先进的推进系统和激光通信技术,以提高网络效率和减少空间碎片风险。作为 Starlink 卫星群的一部分,STARLINK-32014 有助于扩大覆盖范围,特别是在偏远和网络基础设施薄弱的地区。
美国
(US)
| 数据来源 | 国际轨道数据 |
| 星历时间: | 2025-11-02T07:16:44+0800 1天前 查看轨道信息 |
| 半长轴: | 6853.348km |
| 偏心率: | 0.0001394 |
| 轨道倾角: | 53.160° |
| 近地点辐角 | 74.589° |
| 升交点赤经 | 193.029° |
| 平近点角 | 285.526° |
| 近地点: | 474.257km |
| 远地点: | 476.169km |
| 周期: | 94.105分钟 |
| 每日圈数: | 15.302016 |